When you browse on this site, cookies collect data to enhance your experience and personalize the content and advertising you see.
Visit our Privacy Policy to learn more. By continuing to use the site, you agree to this use of cookies and data.
  • In Österreich
  • Länderverzeichnis
  • Für 7 Tage
  • Wassertemperatur
  • Satellitenkarten
  • Wetterkarte
  • News
  • Widgets
  • user-avatar
    Anmelden

    Stündliche Wetter Sidi Bu-l-Abbas

    Heute, 26 März, Dienstag

    Zeit Temperatur Niederschläge Wind Luftdruck Luftfeuchtigkeit
    00:00 +14°C° 0 mm 1 m/S 718 mmHg 72%
    01:00 +14°C° 0 mm 1 m/S 718 mmHg 70%
    02:00 +14°C° 0 mm 1 m/S 718 mmHg 67%
    03:00 +14°C° 0 mm 1 m/S 718 mmHg 64%
    04:00 +14°C° 0 mm 2 m/S 718 mmHg 62%
    05:00 +15°C° 0 mm 2 m/S 717 mmHg 60%
    06:00 +15°C° 0 mm 2 m/S 717 mmHg 58%
    07:00 +16°C° 0 mm 2 m/S 717 mmHg 53%
    08:00 +18°C° 0 mm 2 m/S 718 mmHg 47%
    09:00 +20°C° 0 mm 3 m/S 718 mmHg 42%
    10:00 +22°C° 0 mm 3 m/S 718 mmHg 37%
    11:00 +24°C° 0 mm 3 m/S 718 mmHg 31%
    12:00 +26°C° 0 mm 2 m/S 718 mmHg 25%
    13:00 +26°C° 0 mm 4 m/S 717 mmHg 28%
    14:00 +26°C° 0 mm 6 m/S 717 mmHg 31%
    15:00 +26°C° 0 mm 9 m/S 716 mmHg 34%
    16:00 +23°C° 0 mm 8 m/S 716 mmHg 43%
    17:00 +20°C° 0 mm 8 m/S 716 mmHg 53%
    18:00 +17°C° 0 mm 7 m/S 715 mmHg 62%
    19:00 +15°C° 0.1 mm 6 m/S 716 mmHg 67%
    20:00 +14°C° 0.1 mm 6 m/S 717 mmHg 71%
    21:00 +12°C° 0.1 mm 5 m/S 717 mmHg 76%
    22:00 +12°C° 0.9 mm 4 m/S 718 mmHg 74%
    23:00 +11°C° 0.9 mm 4 m/S 718 mmHg 73%

    Morgen, 27 März, Mittwoch

    Zeit Temperatur Niederschläge Wind Luftdruck Luftfeuchtigkeit
    00:00 +11°C° 0.9 mm 3 m/S 718 mmHg 71%
    01:00 +10°C° 0.3 mm 3 m/S 718 mmHg 71%
    02:00 +10°C° 0.3 mm 3 m/S 718 mmHg 71%
    03:00 +10°C° 0.3 mm 2 m/S 718 mmHg 70%
    04:00 +10°C° 0.3 mm 3 m/S 718 mmHg 72%
    05:00 +9°C° 0.3 mm 3 m/S 718 mmHg 74%
    06:00 +9°C° 0.3 mm 3 m/S 718 mmHg 76%
    07:00 +9°C° 0.2 mm 3 m/S 719 mmHg 75%
    08:00 +10°C° 0.2 mm 3 m/S 719 mmHg 73%
    09:00 +10°C° 0.2 mm 3 m/S 719 mmHg 72%
    10:00 +10°C° 0.1 mm 4 m/S 720 mmHg 69%
    11:00 +11°C° 0.1 mm 4 m/S 720 mmHg 67%
    12:00 +11°C° 0.1 mm 4 m/S 720 mmHg 65%
    13:00 +11°C° 0.4 mm 4 m/S 720 mmHg 67%
    14:00 +11°C° 0.4 mm 4 m/S 721 mmHg 68%
    15:00 +11°C° 0.4 mm 3 m/S 721 mmHg 70%
    16:00 +11°C° 0.3 mm 3 m/S 721 mmHg 72%
    17:00 +12°C° 0.3 mm 2 m/S 721 mmHg 74%
    18:00 +10°C° 0.3 mm 2 m/S 722 mmHg 76%
    19:00 +9°C° 0 mm 2 m/S 722 mmHg 78%
    20:00 +10°C° 0 mm 1 m/S 723 mmHg 81%
    21:00 +9°C° 0 mm 1 m/S 723 mmHg 84%
    22:00 +8°C° 0 mm 1 m/S 723 mmHg 85%
    23:00 +8°C° 0 mm 1 m/S 723 mmHg 87%

    übermorgen, 28 März, Donnerstag

    Zeit Temperatur Niederschläge Wind Luftdruck Luftfeuchtigkeit
    00:00 +8°C° 0 mm 1 m/S 723 mmHg 88%
    01:00 +7°C° 0 mm 1 m/S 723 mmHg 89%
    02:00 +6°C° 0 mm 0 m/S 723 mmHg 90%
    03:00 +6°C° 0 mm 0 m/S 723 mmHg 91%
    04:00 +5°C° 0 mm 0 m/S 723 mmHg 92%
    05:00 +5°C° 0 mm 0 m/S 723 mmHg 92%
    06:00 +5°C° 0 mm 0 m/S 723 mmHg 92%
    07:00 +8°C° 0 mm 1 m/S 724 mmHg 85%
    08:00 +10°C° 0 mm 1 m/S 724 mmHg 77%
    09:00 +12°C° 0 mm 2 m/S 725 mmHg 69%
    10:00 +12°C° 0 mm 3 m/S 725 mmHg 63%
    11:00 +14°C° 0 mm 3 m/S 725 mmHg 58%
    12:00 +16°C° 0 mm 3 m/S 725 mmHg 52%
    13:00 +15°C° 0 mm 4 m/S 725 mmHg 52%
    14:00 +17°C° 0 mm 4 m/S 724 mmHg 51%
    15:00 +17°C° 0 mm 4 m/S 724 mmHg 51%
    16:00 +15°C° 0 mm 4 m/S 724 mmHg 56%
    17:00 +14°C° 0 mm 4 m/S 723 mmHg 61%
    18:00 +13°C° 0 mm 4 m/S 723 mmHg 66%
    19:00 +12°C° 0 mm 3 m/S 724 mmHg 74%
    20:00 +11°C° 0 mm 3 m/S 724 mmHg 82%
    21:00 +9°C° 0 mm 2 m/S 724 mmHg 90%
    22:00 +9°C° 0 mm 2 m/S 724 mmHg 89%
    23:00 +10°C° 0 mm 1 m/S 724 mmHg 89%

    29 März, Freitag

    Zeit Temperatur Niederschläge Wind Luftdruck Luftfeuchtigkeit
    00:00 +11°C° 0 mm 1 m/S 723 mmHg 88%
    01:00 +10°C° 0.3 mm 1 m/S 723 mmHg 89%
    02:00 +10°C° 0.3 mm 1 m/S 723 mmHg 89%
    03:00 +10°C° 0.3 mm 1 m/S 722 mmHg 90%
    04:00 +10°C° 0.6 mm 1 m/S 722 mmHg 89%
    05:00 +10°C° 0.6 mm 2 m/S 722 mmHg 89%
    06:00 +10°C° 0.6 mm 2 m/S 722 mmHg 89%
    07:00 +12°C° 0.5 mm 3 m/S 723 mmHg 80%
    08:00 +14°C° 0.5 mm 4 m/S 723 mmHg 71%
    09:00 +16°C° 0.5 mm 5 m/S 724 mmHg 61%
    10:00 +18°C° 0.5 mm 4 m/S 724 mmHg 56%
    11:00 +20°C° 0.5 mm 4 m/S 724 mmHg 51%
    12:00 +21°C° 0.5 mm 4 m/S 724 mmHg 46%
    13:00 +21°C° 0.1 mm 3 m/S 723 mmHg 46%
    14:00 +22°C° 0.1 mm 3 m/S 723 mmHg 45%
    15:00 +22°C° 0.1 mm 3 m/S 722 mmHg 44%
    16:00 +20°C° 0.4 mm 2 m/S 722 mmHg 53%
    17:00 +19°C° 0.4 mm 2 m/S 722 mmHg 63%
    18:00 +17°C° 0.4 mm 2 m/S 721 mmHg 72%
    19:00 +16°C° 1 mm 1 m/S 722 mmHg 77%
    20:00 +15°C° 1 mm 1 m/S 722 mmHg 82%
    21:00 +14°C° 1 mm 1 m/S 722 mmHg 87%
    22:00 +15°C° 0.2 mm 1 m/S 722 mmHg 85%
    23:00 +15°C° 0.2 mm 1 m/S 722 mmHg 82%

    30 März, Samstag

    Zeit Temperatur Niederschläge Wind Luftdruck Luftfeuchtigkeit
    00:00 +15°C° 0.2 mm 1 m/S 722 mmHg 80%
    01:00 +15°C° 0 mm 1 m/S 722 mmHg 79%
    02:00 +14°C° 0 mm 1 m/S 722 mmHg 78%
    03:00 +14°C° 0 mm 1 m/S 721 mmHg 76%
    04:00 +14°C° 0.1 mm 2 m/S 721 mmHg 73%
    05:00 +14°C° 0.1 mm 2 m/S 721 mmHg 70%
    06:00 +14°C° 0.1 mm 2 m/S 721 mmHg 67%
    07:00 +14°C° 0 mm 4 m/S 721 mmHg 59%
    08:00 +16°C° 0 mm 5 m/S 721 mmHg 51%
    09:00 +18°C° 0 mm 7 m/S 722 mmHg 43%
    10:00 +18°C° 0 mm 8 m/S 722 mmHg 40%
    11:00 +19°C° 0 mm 9 m/S 722 mmHg 38%
    12:00 +21°C° 0 mm 10 m/S 722 mmHg 35%
    13:00 +19°C° 0 mm 9 m/S 721 mmHg 38%
    14:00 +20°C° 0 mm 8 m/S 720 mmHg 41%
    15:00 +20°C° 0 mm 8 m/S 720 mmHg 44%
    16:00 +19°C° 0 mm 6 m/S 719 mmHg 48%
    17:00 +17°C° 0 mm 5 m/S 719 mmHg 51%
    18:00 +17°C° 0 mm 3 m/S 719 mmHg 55%
    19:00 +15°C° 0 mm 4 m/S 719 mmHg 56%
    20:00 +14°C° 0 mm 5 m/S 719 mmHg 57%
    21:00 +13°C° 0 mm 5 m/S 719 mmHg 57%
    22:00 +13°C° 0 mm 5 m/S 718 mmHg 58%
    23:00 +13°C° 0 mm 5 m/S 718 mmHg 59%

    31 März, Sonntag

    Zeit Temperatur Niederschläge Wind Luftdruck Luftfeuchtigkeit
    00:00 +13°C° 0 mm 5 m/S 717 mmHg 60%
    01:00 +13°C° 0.1 mm 5 m/S 717 mmHg 62%
    02:00 +12°C° 0.1 mm 4 m/S 716 mmHg 64%
    03:00 +12°C° 0.1 mm 4 m/S 715 mmHg 66%
    04:00 +12°C° 0.2 mm 3 m/S 715 mmHg 68%
    05:00 +12°C° 0.2 mm 3 m/S 715 mmHg 70%
    06:00 +11°C° 0.2 mm 3 m/S 715 mmHg 72%
    07:00 +13°C° 0.1 mm 3 m/S 715 mmHg 66%
    08:00 +16°C° 0.1 mm 3 m/S 716 mmHg 61%
    09:00 +18°C° 0.1 mm 3 m/S 716 mmHg 55%
    10:00 +19°C° 0.2 mm 4 m/S 717 mmHg 53%
    11:00 +20°C° 0.2 mm 4 m/S 717 mmHg 50%
    12:00 +21°C° 0.2 mm 4 m/S 717 mmHg 48%
    13:00 +20°C° 0.2 mm 5 m/S 717 mmHg 50%
    14:00 +20°C° 0.2 mm 6 m/S 717 mmHg 52%
    15:00 +20°C° 0.2 mm 7 m/S 716 mmHg 53%
    16:00 +17°C° 0 mm 6 m/S 716 mmHg 58%
    17:00 +16°C° 0 mm 5 m/S 717 mmHg 62%
    18:00 +15°C° 0 mm 5 m/S 717 mmHg 67%
    19:00 +14°C° 0 mm 4 m/S 717 mmHg 73%
    20:00 +13°C° 0 mm 4 m/S 718 mmHg 80%
    21:00 +12°C° 0 mm 3 m/S 718 mmHg 86%
    22:00 +12°C° 0 mm 3 m/S 718 mmHg 88%
    23:00 +12°C° 0 mm 2 m/S 718 mmHg 91%
    Mehr zeigen